パンスターズ彗星

C/2016 R2 ( PanSTARRS )

English version
Home page
Updated on May 21, 2018

---------------------------------------------------------------------

・ プロフィール

発見日 2016年9月7日
発見光度 19.1等
発見者 Pan-STARRS 1 telescope (Haleakala)

・ 写真集

・ 軌道要素

Epoch 2018 May 2.0 TT = JDT 2458240.5
T 2018 May  9.58570 TT                                  MPCW
q   2.6023394            (2000.0)            P               Q
z  +0.0014069      Peri.   33.19316     -0.14727669     -0.52443208
 +/-0.0000003      Node    80.56888     +0.61561436     -0.71222373
e   0.9963387      Incl.   58.22352     +0.77416312     +0.46659228
From 2492 observations 2016 Aug. 30-2018 Mar. 28, mean residual 0".4.

・ 星図

・ 光度変化

        m1 = 3.5 + 5 logΔ + 12.0 log r

---------------------------------------------------------------------

軌道要素はM.P.E.C. 2018-F152に掲載されたものです。
星図はステラナビゲータ Ver.10 (アストロアーツ) で作成したものです。
光度グラフはComet for Windowsで作成したものです。

---------------------------------------------------------------------

Copyright(C) Seiichi Yoshida (comet@aerith.net). All rights reserved.